{"data":{"norad_id":56107,"epoch":"2026-05-24T23:14:42.069408Z","epoch_age_seconds":77923,"freshness":"FRESH","line1":"1 56107U 23046Q   26144.96854247  .00000120  00000+0  13902-4 0  9997","line2":"2 56107  43.0058  91.0818 0001264 278.6964  81.3744 15.27574623173698","mean_motion":15.27574623,"eccentricity":0.0001264,"inclination_deg":43.0058,"raan_deg":91.0818,"arg_perigee_deg":278.6964,"mean_anomaly_deg":81.3744,"bstar":1.3902e-5,"rev_number":17369,"period_min":94.26708052874,"perigee_km":482.19794080158,"apogee_km":483.93245271692,"semimajor_km":6861.2021967592,"source":"CELESTRAK","updated_at":"2026-05-25T13:38:17.955604Z"}}